Regional Weather Roundup
Issued by NWS

Home | Current Version | Previous Version | Graphics & Text | Print | Product List | Glossary On
Versions: 1 2 3 4 5 6 7 8 9 10 11 12 13 14 15 16 17 18 19 20 21 22 23 24 25 26 27
000
ASUS45 KPSR 240510
RWRAZ

ARIZONA HOURLY REGIONAL WEATHER ROUNDUP
NATIONAL WEATHER SERVICE PHOENIX AZ
1000 PM MST SUN APR 23 2017

NOTE: FAIR INDICATES FEW OR NO CLOUDS BELOW 12,000 FEET WITH NO
SIGNIFICANT WEATHER AND/OR OBSTRUCTIONS TO VISIBILITY.

AZZ001>003-036-240600-
NORTHWEST ARIZONA

CITY           SKY/WX    TMP DP  RH WIND       PRES   REMARKS
BULLHEAD CITY  PTCLDY    86  23  10 S13       29.63R
KINGMAN        CLEAR     72  28  19 SW17G28   29.77S
$$

AZZ004>008-015-016-018-240600-
NORTH CENTRAL ARIZONA

CITY           SKY/WX    TMP DP  RH WIND       PRES   REMARKS
GRAND CANYON   CLEAR     54  12  18 SW12      29.95S
WILLIAMS       CLEAR     55  12  18 SW15      29.98F
PRESCOTT       CLEAR     58  19  22 CALM      29.92R
FLAGSTAFF      CLEAR     57  16  20 SW16G25   29.94F
PAYSON         CLEAR     66  19  16 SW9G16    29.93F
PAGE           CLEAR     73  14  10 W7        29.76R
$$

AZZ009>014-017-240600-
NORTHEAST ARIZONA

CITY           SKY/WX    TMP DP  RH WIND       PRES   REMARKS
WINSLOW        CLEAR     58  17  20 CALM      29.88R
SAINT JOHNS    PTCLDY    56  21  25 S5        29.94S
WINDOW ROCK    CLEAR     50  17  27 S7        29.97R
SHOW LOW       PTCLDY    57  16  19 SW3       30.01R
$$

AZZ540-542>544-546-548-240600-
GREATER PHOENIX AREA

CITY           SKY/WX    TMP DP  RH WIND       PRES   REMARKS
PHOENIX        PTCLDY    83  27  13 W5        29.68R
BUCKEYE        CLEAR     75  27  16 S7        29.70R
LUKE AFB       CLEAR     81  26  13 SW7       29.68R
DEER VALLEY    CLEAR     83  19   9 W6        29.70R
SCOTTSDALE     CLEAR     85  21   9 W9        29.72R
MESA-GATEWAY   PTCLDY    82  30  15 SW6       29.72R
$$

AZZ539-553-240600-
SOUTHWEST MARICOPA COUNTY AND PINAL COUNTY

CITY           SKY/WX    TMP DP  RH WIND       PRES   REMARKS
CASA GRANDE    CLEAR     79  29  16 SW7       29.73S
GILA BEND      FAIR      83  17   8 S10       29.68S
$$

AZZ503-504-507>509-240600-
SOUTHEAST ARIZONA

CITY           SKY/WX    TMP DP  RH WIND       PRES   REMARKS
TUCSON         MOCLDY    81  21  11 W8        29.85R
DAVIS-MONTHAN  PTCLDY    80  22  12 W10       29.83S
NOGALES        CLEAR     66  16  14 E6        29.93R
SIERRA VISTA   CLEAR     70  11  10 W16       29.96S
DOUGLAS        CLEAR     68  14  12 N6        29.92R
SAFFORD        PTCLDY    76  22  13 NW10      29.81R
$$

AZZ532-240600-
SOUTHWEST ARIZONA

CITY           SKY/WX    TMP DP  RH WIND       PRES   REMARKS
YUMA           CLEAR     79  17  10 W9        29.69R
$$

CAZ041-043-047-048-061-525>527-560>570-240600-
SOUTHERN CALIFORNIA

CITY           SKY/WX    TMP DP  RH WIND       PRES   REMARKS
DOWNTOWN L.A.  CLEAR     62  52  69 CALM      29.86R
L.A. AIRPORT   PTCLDY    60  51  72 SW6       29.87R
SAN DIEGO      MOCLDY    63  54  72 SE7       29.91R
BURBANK        CLEAR     61  48  62 E9        29.87R
ONTARIO        PTCLDY    61  53  75 W9        29.87R
RIVERSIDE      CLEAR     62  53  72 W6        29.87R
PALM SPRINGS   PTCLDY    79  37  22 NW15      29.71R
EL CENTRO NAS  LGT RAIN  77  28  16 W24       29.72R
IMPERIAL       CLEAR     76  33  21 W17G25    29.69R
BLYTHE         CLEAR     81  31  16 SW16      29.66R
NEEDLES        PTCLDY    86  27  11 W18G25    29.64R
$$

NVZ020-UTZ003-240600-
SOUTHERN NEVADA-UTAH

CITY           SKY/WX    TMP DP  RH WIND       PRES   REMARKS
LAS VEGAS      PTCLDY    77  16  10 S8G17     29.66S
SALT LAKE CITY CLEAR     53  38  56 SE9       29.81S
$$

NMZ009-TXZ055-240600-
NEW MEXICO-WEST TEXAS

CITY           SKY/WX    TMP DP  RH WIND       PRES   REMARKS
ALBUQUERQUE    PTCLDY    65  30  27 S20       29.92R
EL PASO        CLEAR     74  32  21 SE13G26   29.90F
$$


........................KEY........................
SKY/WX - SKY CONDITION/WEATHER
TMP    - TEMPERATURE IN FAHRENHEIT
DP     - DEW POINT IN FAHRENHEIT
RH     - RELATIVE HUMIDITY IN PERCENT
WIND   - DIRECTION AND SPEED IN MILES PER HOUR (MPH)
VRB    - VARIABLE WIND DIRECTION
PRES   - MEAN SEA LEVEL PRESSURE IN INCHES OF MERCURY
         F - FALLING PRESSURE   R - RISING PRESSURE
         S - STEADY PRESSURE
VSB    - VISIBILITY IN MILES
HX     - HEAT INDEX IN FAHRENHEIT
WCI    - WIND CHILL INDEX IN FAHRENHEIT
TC     - TEMPERATURE IN CELSIUS WHICH IS ALSO KNOWN AS
         TEMPERATURE IN CENTIGRADE
AFB    - AIR FORCE BASE
         LUKE AFB IS LUKE AIR FORCE BASE
         DAVIS-MONTHAN IS DAVIS-MONTHAN AIR FORCE BASE
NAS    - NAVAL AIR STATION
         EL CENTRO NAS IS EL CENTRO NAVAL AIR STATION
N/A    - NOT AVAILABLE





USA.gov is the U.S. government's official web portal to all federal, state and local government web resources and services.